Theta_e
312 313 312 313 312 313 314 313 315 315 314 313 312 312 311 312 312 312 312 313 313 313 312 312 311 311 311 311 310 310 310 309 308 307 306 304 300 295 291 288 287 286 285 285
314 314 313 314 312 313 314 314 314 315 313 310 312 313 312 312 312 312 312 312 312 312 312 310 311 310 309 309 308 308 309 308 307 306 302 297 293 290 287 286 286 285 284 284
313 314 315 314 314 312 313 313 313 314 313 310 311 311 312 312 312 312 312 312 312 312 312 310 310 309 309 308 308 307 307 306 302 298 295 292 289 287 286 286 285 284 283 283
310 313 312 313 313 313 314 313 311 312 310 311 313 314 313 313 312 312 312 312 312 312 310 309 309 308 309 308 306 305 303 301 298 294 291 289 287 286 286 285 284 283 283 283
309 313 311 314 314 312 313 314 311 312 310 311 312 312 311 313 313 313 312 312 312 312 311 309 309 308 307 305 303 301 300 297 295 291 289 287 286 286 285 284 283 283 283 282
308 310 311 311 313 314 312 313 312 312 310 309 311 311 309 312 312 312 312 311 311 311 310 309 307 305 304 302 300 299 297 294 291 289 287 286 285 285 284 283 283 283 282 282
308 311 310 310 312 314 315 314 314 313 312 310 311 312 314 312 312 312 312 310 310 309 308 306 304 302 301 300 298 296 294 291 289 287 286 285 285 284 283 282 282 282 282 281
307 308 312 313 312 314 312 313 315 315 314 312 312 313 313 312 312 311 310 309 308 307 305 303 302 300 299 298 296 294 291 289 287 286 285 285 284 283 283 282 282 282 281 281
312 310 312 313 314 315 315 315 315 316 315 313 312 312 311 312 312 311 310 308 307 305 303 301 300 298 298 297 295 293 290 288 287 286 285 284 283 283 282 282 282 281 281 281
311 312 312 315 315 315 315 316 316 316 316 314 313 311 311 311 311 310 308 307 305 304 302 300 298 296 296 296 295 291 288 287 286 285 285 284 283 282 282 281 281 281 281 281
311 312 313 314 315 315 315 315 315 315 315 315 313 311 311 311 310 309 308 306 304 303 302 300 297 295 295 294 293 290 287 286 286 285 284 283 282 282 281 281 281 281 281 280
313 310 309 310 310 313 316 315 315 315 314 313 313 313 311 310 310 309 307 305 303 302 300 298 296 295 294 293 291 288 286 286 285 284 283 283 282 281 281 281 281 280 280 280
310 308 307 310 311 312 312 314 314 314 313 314 311 312 311 310 309 308 307 305 303 302 299 298 296 295 294 292 289 287 286 285 284 284 283 282 281 281 281 280 280 280 280 279
309 304 305 312 310 311 312 313 313 313 312 311 311 310 310 309 308 307 307 305 303 301 299 297 296 294 294 291 288 286 285 284 284 283 282 281 281 280 280 280 279 279 279 278
302 303 303 306 310 311 311 313 311 312 311 310 309 310 309 308 307 306 305 304 302 299 298 296 295 293 292 290 287 285 284 284 283 282 282 281 280 280 279 279 279 279 278 278
302 305 305 310 310 311 311 313 311 310 310 310 309 307 307 307 306 305 304 303 301 299 297 296 294 294 292 289 286 285 284 283 282 282 281 280 280 279 279 279 278 278 278 277
305 307 307 309 310 310 310 311 312 310 309 309 306 305 304 304 304 303 302 301 300 299 297 296 295 293 291 288 285 284 283 282 282 281 280 280 279 279 278 278 278 277 277 276
301 302 305 305 304 303 304 306 309 310 309 309 309 306 304 304 304 303 302 300 298 296 295 295 293 292 290 286 284 283 282 282 281 280 280 279 278 278 278 277 277 276 276 276
302 302 302 301 302 303 304 306 308 310 309 311 311 305 305 304 303 303 301 299 297 295 294 293 292 291 288 285 284 283 282 281 280 280 279 279 278 277 277 277 276 275 275 275
304 304 305 306 308 309 308 308 309 310 311 315 314 304 304 304 303 302 300 299 297 296 295 293 291 290 286 284 283 282 282 281 280 280 279 278 277 277 276 276 275 275 274 274
303 303 303 304 305 308 310 308 308 310 309 312 309 308 306 303 301 301 298 297 296 294 293 293 292 289 286 284 283 282 281 280 280 279 278 277 277 276 276 275 275 274 274 273
302 303 303 304 305 306 309 310 310 309 311 307 305 305 306 301 300 298 297 298 296 293 292 292 290 286 284 283 282 281 281 280 279 278 278 277 276 276 276 275 274 274 273 273
301 302 302 303 304 305 307 310 310 310 311 307 306 306 303 302 301 299 297 295 294 293 292 291 287 285 284 282 282 281 280 279 278 278 277 276 276 276 275 275 274 273 273 272
300 301 301 301 303 305 308 308 307 307 307 305 303 304 304 301 298 296 296 296 294 293 291 288 286 286 282 281 281 280 279 279 278 277 277 276 276 276 275 274 274 273 272 272
299 300 300 300 301 303 304 303 302 301 302 301 300 299 299 299 300 298 296 294 292 291 289 287 290 282 281 281 280 279 279 278 278 277 276 276 276 275 275 274 273 273 272 272
299 299 299 299 298 299 300 299 299 298 298 298 296 296 297 298 297 296 294 292 290 289 288 292 283 281 281 280 279 279 278 278 277 277 276 276 276 275 274 274 273 272 272 272
298 297 297 298 297 296 297 297 297 297 295 295 297 295 294 294 294 295 293 290 288 289 291 284 281 281 280 279 279 278 278 278 277 277 277 276 276 275 274 273 273 272 272 272
Wind_Speed
6 7 7 8 7 9 7 6 7 6 8 8 9 15 22 25 21 18 16 14 12 12 14 16 20 22 24 26 28 26 24 20 17 13 8 5 5 6 8 9 9 10 10 11
4 4 7 4 5 9 4 3 6 3 7 8 3 19 23 28 26 23 20 18 17 17 17 20 22 25 29 29 27 23 19 16 12 7 5 3 5 7 7 7 8 9 9 10
4 2 3 5 7 8 5 5 7 7 11 7 5 14 29 35 34 30 25 23 21 21 21 24 26 28 28 26 23 20 15 12 8 5 3 4 5 6 6 6 7 8 8 9
2 3 3 6 1 7 9 7 10 4 6 15 12 21 24 34 37 31 28 27 25 26 28 28 28 27 25 23 19 16 12 9 6 4 3 4 5 5 5 6 6 8 9 9
2 4 5 3 5 8 8 10 10 14 6 11 10 12 8 29 32 30 29 27 26 27 28 29 27 25 22 20 16 14 11 7 4 3 4 4 4 4 5 5 7 8 8 9
2 3 7 8 4 9 6 5 7 17 11 15 19 4 6 32 32 31 29 27 29 30 30 28 26 23 20 18 15 12 8 6 4 2 3 3 3 3 4 7 8 8 7 8
3 4 7 7 5 8 5 8 4 14 19 26 8 11 8 31 34 30 29 30 31 31 30 27 25 22 19 16 14 11 8 4 2 3 3 3 2 3 5 7 7 7 7 8
2 3 7 6 3 7 8 5 5 9 19 30 17 10 16 34 38 36 35 35 34 33 31 27 25 22 19 16 13 10 6 3 3 3 3 3 3 4 5 6 6 7 7 8
9 7 7 10 7 16 5 6 7 11 16 24 22 19 27 37 39 37 36 37 35 33 31 28 24 20 17 15 12 8 5 4 4 4 3 3 3 5 7 7 7 7 8 9
1 4 8 13 9 9 8 9 7 8 13 19 27 25 31 37 39 39 39 39 37 35 32 30 25 21 14 14 11 8 6 5 4 4 4 4 6 7 9 9 9 10 10 11
11 6 17 11 3 8 10 10 12 13 16 20 25 27 31 37 40 40 40 39 37 35 32 29 27 23 18 15 11 9 7 6 5 5 5 6 7 9 9 9 10 11 11 12
4 4 5 14 25 19 13 15 15 17 20 23 26 29 34 37 40 41 41 40 39 35 31 29 26 22 18 14 11 9 9 7 6 6 6 7 8 10 9 10 11 12 12 14
6 19 22 28 15 17 19 12 17 20 24 24 29 29 33 37 39 40 39 39 37 35 31 27 25 21 17 14 12 10 9 8 7 6 7 8 8 8 9 11 13 13 13 12
23 27 27 28 19 24 20 14 12 18 20 22 28 32 33 37 39 40 40 38 36 34 31 26 24 20 17 14 12 10 9 8 7 7 7 7 7 8 9 10 12 14 13 13
37 32 28 25 23 24 21 16 12 17 21 24 29 32 35 36 38 40 40 38 35 32 30 26 24 20 17 14 11 9 9 8 7 6 6 7 7 8 10 11 12 12 14 16
20 13 18 21 23 21 13 11 10 18 20 24 29 33 33 34 37 39 39 38 38 37 32 27 23 19 17 14 11 10 10 8 7 6 6 7 8 9 9 9 11 14 16 18
21 24 26 23 15 13 9 8 8 13 21 23 29 31 33 35 36 38 39 37 34 30 28 25 23 20 16 13 11 10 9 8 6 6 6 7 8 9 9 9 12 16 17 18
39 34 31 28 30 30 27 21 14 13 21 23 25 30 33 35 38 39 40 39 36 32 28 24 22 18 15 12 10 9 8 7 6 6 6 7 9 9 9 11 14 16 15 17
24 30 35 35 34 32 29 23 17 12 16 18 25 30 33 32 35 37 39 39 38 36 32 27 23 19 15 12 10 9 8 7 6 7 7 7 9 9 10 12 13 15 16 18
3 9 13 19 20 23 24 18 18 17 15 22 26 34 33 34 36 37 38 39 37 34 30 28 24 18 14 12 10 10 9 7 6 6 6 8 9 10 10 12 13 14 15 16
18 16 13 12 14 14 18 21 21 22 21 28 40 38 37 38 38 38 40 41 38 33 29 24 20 17 14 12 11 10 9 7 6 6 6 7 9 9 10 11 12 13 14 15
22 22 22 19 17 15 13 20 22 24 22 29 38 37 37 42 40 40 39 39 37 34 29 24 20 17 14 12 12 10 8 6 5 5 5 6 7 8 10 11 12 12 13 15
21 23 24 25 22 20 15 20 25 30 31 34 38 38 41 44 44 46 45 40 33 32 28 23 20 15 13 13 11 9 7 6 5 4 4 5 5 8 9 10 12 12 13 14
25 25 25 26 25 19 15 16 22 27 30 33 38 37 40 44 44 44 39 38 35 30 26 23 18 14 15 13 11 9 7 5 4 3 3 3 5 8 9 11 12 12 13 15
26 26 23 23 23 17 12 12 20 27 29 32 34 36 37 40 43 44 40 37 33 30 26 22 16 18 16 13 10 8 6 5 3 2 2 3 6 8 9 10 11 12 13 14
27 26 21 19 18 15 11 11 18 24 28 30 32 35 40 43 41 40 37 35 35 29 26 21 21 19 15 12 10 9 7 5 3 1 2 4 6 8 9 10 11 12 13 14
26 26 20 18 17 14 10 11 17 24 28 32 35 37 43 42 40 40 38 38 34 29 23 22 21 18 15 13 11 9 7 5 2 0 3 5 7 8 9 10 12 13 14 14
Wind_Direction
225 214 179 194 179 170 182 193 169 233 222 239 216 193 187 179 171 170 165 161 162 162 157 160 162 164 168 168 167 168 171 174 177 182 201 244 283 308 316 323 327 339 346 345
240 185 202 237 206 185 202 134 265 171 261 222 181 161 168 180 180 178 173 170 165 161 158 159 159 159 159 158 160 165 168 171 176 193 221 251 298 313 326 333 340 342 342 343
248 186 120 326 212 195 189 198 157 189 227 162 181 174 180 184 187 184 178 175 169 166 163 160 157 158 159 158 160 165 170 174 179 189 231 286 314 328 327 332 341 343 342 337
210 64 238 235 201 172 196 208 204 239 196 193 209 208 206 200 191 184 180 175 171 166 162 160 159 161 162 164 166 171 173 174 182 221 285 308 316 312 321 340 347 344 340 340
163 212 290 283 196 170 166 256 193 227 154 185 160 164 186 206 204 194 187 178 172 169 166 164 166 168 170 169 173 174 177 183 206 264 293 302 302 309 324 344 350 351 347 346
136 234 221 223 233 180 126 277 227 206 176 156 146 158 232 196 196 191 184 180 175 173 172 174 173 177 179 176 175 178 185 199 226 282 298 296 297 320 342 351 355 357 356 356
160 234 288 253 216 159 130 233 278 217 197 166 193 204 199 188 187 188 182 178 179 178 178 179 180 181 181 181 181 185 192 204 266 299 299 298 306 329 340 345 356 4 360 357
105 159 263 210 135 169 211 225 250 210 212 200 206 180 177 182 179 181 178 177 180 178 179 181 184 184 185 184 184 187 193 239 289 301 307 308 318 320 327 333 342 350 347 350
188 210 229 213 244 213 219 262 257 229 211 208 198 179 178 178 180 181 179 178 180 182 180 183 185 187 189 188 190 195 213 255 268 280 290 290 292 305 311 313 316 329 329 332
49 245 255 263 262 271 241 248 258 239 226 210 205 189 181 180 180 179 182 182 182 183 184 184 185 186 197 199 195 206 226 241 251 268 274 270 275 290 300 297 301 311 317 322
299 313 331 286 281 338 303 261 240 239 230 217 207 194 190 184 183 184 183 184 185 187 188 188 186 190 195 199 203 214 226 233 246 262 267 271 277 288 293 291 297 300 309 317
278 297 326 303 315 326 288 259 263 246 217 213 212 203 192 189 189 187 185 184 186 189 191 190 191 193 194 199 209 225 231 233 243 254 259 267 277 286 286 288 297 301 306 314
255 301 315 320 315 345 346 296 252 233 227 209 204 203 198 194 193 190 187 188 190 191 192 194 195 195 197 203 214 227 236 243 245 256 261 266 273 278 278 289 295 295 303 309
275 301 306 286 299 314 332 332 258 226 225 219 205 196 198 197 194 192 191 192 191 192 193 196 198 199 201 207 217 228 236 242 247 258 264 265 272 277 285 295 295 298 304 311
276 269 282 290 288 292 302 329 251 220 214 207 205 202 199 198 197 193 193 192 191 192 194 197 200 200 203 209 218 227 234 240 251 264 265 264 273 284 297 302 299 294 300 308
285 289 272 271 272 268 290 307 280 231 209 210 205 205 204 200 197 195 193 192 190 193 195 198 201 202 206 212 217 222 227 238 252 262 270 276 284 295 304 305 297 296 301 307
287 283 281 268 293 323 306 289 303 262 221 213 211 205 201 198 196 194 193 192 195 197 196 201 201 201 205 212 219 222 225 237 254 270 282 288 293 298 304 303 300 301 304 309
261 265 270 278 289 295 294 305 303 271 232 213 218 210 207 204 199 194 193 191 192 193 196 200 200 202 206 213 217 221 227 240 253 271 282 287 291 299 306 312 308 305 304 305
264 267 268 273 274 277 279 278 264 258 230 215 230 218 212 207 204 198 194 191 193 193 192 196 199 202 205 210 213 219 228 241 258 275 285 290 293 299 308 315 311 309 309 311
284 255 260 268 273 268 261 253 243 249 239 217 238 226 211 209 207 201 195 195 198 198 196 196 198 201 203 207 211 219 225 238 255 270 279 286 291 299 311 318 315 315 315 318
4 359 345 315 301 279 249 241 240 240 235 226 232 221 216 210 203 199 193 193 195 195 197 198 199 199 201 205 212 216 225 235 249 262 272 282 290 300 316 319 318 322 321 325
351 350 349 337 321 297 261 234 231 239 244 228 217 218 216 208 201 196 200 200 193 191 194 195 194 196 199 205 208 214 221 231 240 253 269 282 293 310 319 321 323 327 328 327
338 342 342 341 328 312 271 233 220 222 235 230 221 215 211 206 201 196 193 194 194 192 193 192 190 193 202 202 205 208 213 221 231 249 270 288 306 318 321 325 327 329 328 327
343 335 335 337 334 316 291 248 227 227 225 225 220 213 210 201 200 199 198 187 192 192 187 185 183 200 198 199 200 202 205 209 220 244 281 301 318 323 325 325 327 329 328 330
341 336 329 331 337 330 309 265 233 221 218 215 213 208 204 205 207 192 193 192 185 181 179 178 188 197 192 192 192 194 193 197 205 230 291 318 325 325 322 323 325 327 329 331
330 332 329 327 334 333 316 274 238 222 213 205 201 198 198 201 199 192 184 184 179 176 179 186 190 188 187 185 184 185 185 188 192 219 328 327 325 319 321 321 323 327 329 331
324 329 325 323 328 326 305 267 237 220 211 207 201 196 198 193 186 185 184 177 174 178 178 183 184 181 179 179 177 177 177 181 182 287 318 323 317 320 321 322 325 327 329 329